Location: El Conde
(10.2895°N, 67.2409°W)
Time: 07:04:09
(UTC+00:00)

YAOGAN 3 - Pass Details

Date: 19 May 2024
Orbit: 612 x 613 km, 97.9° (Epoch: 23 June)

Event Time Altitude Azimuth Distance (km) Brightness Sun altitude
Exits shadow 23:29:00 - 167° (SSE) 2,893 7.7 -11.0°
Rises 23:29:03 0° 167° (SSE) 2,872 7.6 -11.1°
Reaches altitude 10° 23:31:14 10° 167° (SSE) 1,967 6.8 -11.5°
Maximum altitude 23:35:31 86° 80° (E) 618 4.5 -12.5°
Drops below altitude 10° 23:39:48 10° 350° (N) 1,967 7.6 -13.5°
Sets 23:41:58 0° 350° (N) 2,871 8.5 -14.0°
